DW9408 Weather Reports


Display with metric or nautical units.
time (UTC)temp
F
wind
direction
speed
MPH
gust
MPH
rain 1hr
in
rain 24hr
in
rain mn
in
humidity
%
barometer
mb
20260504151019 68 190 0.0 5.0 0.00 0.00 0.00 56 1016.8
20260504150748 67 213 1.0 7.0 0.00 0.00 0.00 56 1017.0
20260504141001 64 302 0.0 0.0 0.00 0.00 0.00 64 1017.1
20260504140501 64 302 0.0 0.0 0.00 0.00 0.00 60 1017.0
20260504110336 36 190 0.0 0.0 0.00 0.00 0.00 98 1016.9
20260504100456 37 190 0.0 0.0 0.00 0.00 0.00 97 1016.4
20260504090112 37 190 0.0 0.0 0.00 0.00 0.00 97 1016.7
20260504081244 38 190 0.0 0.0 0.00 0.00 0.00 97 1016.1
20260504080506 38 190 0.0 0.0 0.00 0.00 0.00 97 1016.0
20260504070213 40 190 0.0 0.0 0.00 0.00 0.00 96 1016.2
20260504060202 41 190 0.0 0.0 0.00 0.00 0.00 96 1016.3
20260504050429 42 190 0.0 0.0 0.00 0.00 0.00 95 1016.6
20260504045930 42 190 0.0 0.0 0.00 0.00 0.00 95 1016.5
20260504044931 42 190 0.0 0.0 0.00 0.00 0.00 94 1016.2
20260504044423 43 190 0.0 0.0 0.00 0.00 0.00 94 1016.1
20260504043918 43 190 0.0 0.0 0.00 0.00 0.00 94 1016.1
20260504043410 43 190 0.0 0.0 0.00 0.00 0.00 94 1016.0
20260504042904 43 190 0.0 0.0 0.00 0.00 0.00 94 1016.0
20260504042358 43 190 0.0 0.0 0.00 0.00 0.00 94 1016.1
20260504041854 44 190 0.0 0.0 0.00 0.00 0.00 93 1016.1
20260504040842 44 190 0.0 0.0 0.00 0.00 0.00 93 1016.2
20260504040336 44 190 0.0 0.0 0.00 0.00 0.00 93 1016.3
20260504035831 44 190 0.0 0.0 0.00 0.00 0.00 92 1016.2
20260504035326 45 190 0.0 0.0 0.00 0.00 0.00 92 1016.2
20260504034818 45 190 0.0 0.0 0.00 0.00 0.00 92 1016.2
20260504034312 45 190 0.0 0.0 0.00 0.00 0.00 92 1016.3
20260504033809 45 190 0.0 0.0 0.00 0.00 0.00 92 1016.4
20260504033301 45 190 0.0 0.0 0.00 0.00 0.00 91 1016.4
20260504032755 45 190 0.0 0.0 0.00 0.00 0.00 91 1016.4
20260504032248 46 190 0.0 0.0 0.00 0.00 0.00 91 1016.5
20260504031742 46 190 0.0 0.0 0.00 0.00 0.00 90 1016.5
20260504031236 46 190 0.0 0.0 0.00 0.00 0.00 90 1016.6
20260504030730 46 190 0.0 0.0 0.00 0.00 0.00 90 1016.6
20260504030224 46 190 0.0 0.0 0.00 0.00 0.00 90 1016.6
20260504025718 46 190 0.0 0.0 0.00 0.00 0.00 89 1016.5
20260504025213 47 190 0.0 0.0 0.00 0.00 0.00 89 1016.5
20260504024707 47 190 0.0 0.0 0.00 0.00 0.00 89 1016.5
20260504024200 47 190 0.0 0.0 0.00 0.00 0.00 88 1016.4
20260504023654 47 190 0.0 0.0 0.00 0.00 0.00 87 1016.3
20260504023148 48 190 0.0 0.0 0.00 0.00 0.00 86 1016.3
20260504022642 48 190 0.0 0.0 0.00 0.00 0.00 86 1016.1
20260504022407 48 190 0.0 0.0 0.00 0.00 0.00 85 1016.2
20260504021631 49 190 0.0 0.0 0.00 0.00 0.00 85 1016.2
20260504021125 49 190 0.0 0.0 0.00 0.00 0.00 85 1016.0
20260504020619 49 190 0.0 0.0 0.00 0.00 0.00 84 1016.0
20260504020113 49 190 0.0 0.0 0.00 0.00 0.00 84 1016.0
20260504015606 50 190 0.0 0.0 0.00 0.00 0.00 82 1016.0
20260504015100 50 190 0.0 0.0 0.00 0.00 0.00 82 1015.7
20260504014554 50 190 0.0 0.0 0.00 0.00 0.00 81 1015.6
20260504014049 51 190 0.0 0.0 0.00 0.00 0.00 80 1015.5
20260504013814 51 190 0.0 0.0 0.00 0.00 0.00 79 1015.5
20260504013036 52 190 0.0 0.0 0.00 0.00 0.00 78 1015.4
20260504012805 53 190 0.0 0.0 0.00 0.00 0.00 76 1015.4
20260504012255 53 190 0.0 0.0 0.00 0.00 0.00 75 1015.3
20260504011518 54 190 0.0 0.0 0.00 0.00 0.00 73 1015.3
20260504011244 55 190 0.0 0.0 0.00 0.00 0.00 72 1015.2
20260504010506 55 190 0.0 0.0 0.00 0.00 0.00 71 1015.1
20260504010001 56 190 0.0 0.0 0.00 0.00 0.00 69 1015.1
20260504005455 57 190 0.0 0.0 0.00 0.00 0.00 68 1015.1
20260504004948 57 190 0.0 0.0 0.00 0.00 0.00 66 1015.0
20260504004442 58 190 0.0 0.0 0.00 0.00 0.00 65 1015.0
20260504003937 59 190 0.0 0.0 0.00 0.00 0.00 63 1015.0
20260504003431 60 190 0.0 0.0 0.00 0.00 0.00 63 1015.0
20260504002925 60 190 0.0 0.0 0.00 0.00 0.00 61 1014.9
20260504002422 61 190 0.0 0.0 0.00 0.00 0.00 58 1014.9
20260504001919 62 190 0.0 0.0 0.00 0.00 0.00 58 1014.9
20260504001419 62 190 0.0 0.0 0.00 0.00 0.00 56 1014.9
20260504000920 63 190 0.0 0.0 0.00 0.00 0.00 55 1014.9
20260504000418 63 190 0.0 0.0 0.00 0.00 0.00 53 1014.8
20260503235916 64 190 0.0 0.0 0.00 0.00 0.00 51 1014.8
20260503235647 65 190 0.0 1.0 0.00 0.00 0.00 50 1014.7
20260503234414 65 207 0.0 3.0 0.00 0.00 0.00 48 1014.8
20260503233911 66 216 0.0 4.0 0.00 0.00 0.00 47 1014.7
20260503233410 66 221 0.0 4.0 0.00 0.00 0.00 47 1014.7
20260503232911 67 189 0.0 3.0 0.00 0.00 0.00 46 1014.7
20260503231909 67 202 1.0 8.0 0.00 0.00 0.00 45 1014.6
20260503231409 67 200 1.0 4.0 0.00 0.00 0.00 45 1014.6
20260503230907 67 211 1.0 4.0 0.00 0.00 0.00 44 1014.6
20260503230406 67 234 2.0 7.0 0.00 0.00 0.00 44 1014.6
20260503225903 68 200 2.0 7.0 0.00 0.00 0.00 44 1014.7
20260503225400 68 204 2.0 6.0 0.00 0.00 0.00 44 1014.7
20260503225131 68 221 1.0 6.0 0.00 0.00 0.00 45 1014.7
20260503224359 68 219 2.0 6.0 0.00 0.00 0.00 44 1014.8
20260503223859 68 208 1.0 6.0 0.00 0.00 0.00 45 1014.8
20260503222856 69 202 1.0 5.0 0.00 0.00 0.00 43 1014.8
20260503222357 69 188 2.0 5.0 0.00 0.00 0.00 40 1014.8
20260503221858 69 212 1.0 5.0 0.00 0.00 0.00 42 1014.8
20260503220858 69 200 2.0 11.0 0.00 0.00 0.00 42 1014.7
20260503220359 69 234 3.0 8.0 0.00 0.00 0.00 41 1014.8
20260503215857 69 209 2.0 8.0 0.00 0.00 0.00 40 1014.8
20260503215357 69 227 1.0 7.0 0.00 0.00 0.00 44 1014.9
20260503214857 69 200 1.0 7.0 0.00 0.00 0.00 41 1014.9
20260503214357 69 213 1.0 6.0 0.00 0.00 0.00 39 1014.9
20260503213857 69 204 1.0 7.0 0.00 0.00 0.00 41 1015.0
20260503213356 69 211 2.0 8.0 0.00 0.00 0.00 40 1015.1
20260503212857 70 220 2.0 8.0 0.00 0.00 0.00 39 1015.1
20260503212356 70 133 2.0 7.0 0.00 0.00 0.00 40 1015.0
20260503211855 69 215 1.0 7.0 0.00 0.00 0.00 41 1015.1
20260503211348 69 215 1.0 7.0 0.00 0.00 0.00 43 1015.2
20260503210843 69 173 2.0 9.0 0.00 0.00 0.00 41 1015.2
20260503210608 69 124 2.0 9.0 0.00 0.00 0.00 43 1015.2
20260503205831 69 127 3.0 10.0 0.00 0.00 0.00 42 1015.2
20260503205324 69 257 2.0 10.0 0.00 0.00 0.00 41 1015.3
20260503204819 69 244 3.0 10.0 0.00 0.00 0.00 40 1015.4
20260503204312 69 186 2.0 10.0 0.00 0.00 0.00 42 1015.5
20260503204038 69 232 1.0 8.0 0.00 0.00 0.00 44 1015.5
20260503203301 69 304 1.0 8.0 0.00 0.00 0.00 42 1015.7
20260503202754 68 154 2.0 12.0 0.00 0.00 0.00 43 1015.7
20260503202249 68 242 2.0 12.0 0.00 0.00 0.00 44 1015.8
20260503201744 68 157 1.0 7.0 0.00 0.00 0.00 42 1016.0
20260503201236 68 178 3.0 8.0 0.00 0.00 0.00 41 1016.1
20260503200731 68 186 3.0 10.0 0.00 0.00 0.00 45 1016.3
20260503200224 68 194 1.0 10.0 0.00 0.00 0.00 41 1016.3
20260503195718 69 223 1.0 4.0 0.00 0.00 0.00 40 1016.3
20260503195215 68 267 1.0 9.0 0.00 0.00 0.00 45 1016.4
20260503194708 68 199 2.0 9.0 0.00 0.00 0.00 44 1016.6
20260503194200 68 250 2.0 10.0 0.00 0.00 0.00 44 1016.6
20260503193653 68 182 1.0 10.0 0.00 0.00 0.00 42 1016.7
20260503193148 68 194 1.0 5.0 0.00 0.00 0.00 41 1016.7
20260503192641 68 163 1.0 4.0 0.00 0.00 0.00 43 1016.8
20260503192405 68 211 2.0 11.0 0.00 0.00 0.00 45 1016.8
20260503191629 67 279 2.0 11.0 0.00 0.00 0.00 46 1017.0
20260503191122 67 227 2.0 10.0 0.00 0.00 0.00 44 1017.0
20260503190847 67 197 1.0 7.0 0.00 0.00 0.00 41 1017.1
20260503190112 67 262 0.0 4.0 0.00 0.00 0.00 42 1017.2
20260503185605 67 283 0.0 6.0 0.00 0.00 0.00 42 1017.2
20260503185058 67 227 0.0 6.0 0.00 0.00 0.00 42 1017.3
20260503184554 66 247 0.0 2.0 0.00 0.00 0.00 44 1017.3
20260503184047 66 281 0.0 2.0 0.00 0.00 0.00 46 1017.3
20260503183814 66 259 0.0 7.0 0.00 0.00 0.00 44 1017.4
20260503183035 66 263 1.0 7.0 0.00 0.00 0.00 42 1017.5
20260503182529 66 271 1.0 8.0 0.00 0.00 0.00 44 1017.6
20260503182023 65 261 1.0 9.0 0.00 0.00 0.00 44 1017.6
20260503181747 65 257 1.0 9.0 0.00 0.00 0.00 42 1017.7
20260503181011 65 243 2.0 7.0 0.00 0.00 0.00 42 1017.7
20260503180504 65 211 2.0 10.0 0.00 0.00 0.00 42 1017.8
20260503175959 66 194 1.0 10.0 0.00 0.00 0.00 43 1017.8
20260503175452 65 228 1.0 10.0 0.00 0.00 0.00 44 1017.8
20260503174947 65 160 1.0 6.0 0.00 0.00 0.00 44 1017.9
20260503174440 64 198 1.0 6.0 0.00 0.00 0.00 44 1018.0
20260503174206 64 211 1.0 9.0 0.00 0.00 0.00 47 1018.0
20260503173430 64 222 1.0 9.0 0.00 0.00 0.00 44 1018.1
20260503172922 64 208 1.0 8.0 0.00 0.00 0.00 45 1018.2
20260503172417 64 254 0.0 8.0 0.00 0.00 0.00 46 1018.4
20260503171911 64 318 1.0 8.0 0.00 0.00 0.00 45 1018.4
20260503171405 64 219 0.0 7.0 0.00 0.00 0.00 47 1018.5
20260503170859 64 266 0.0 2.0 0.00 0.00 0.00 48 1018.6
20260503170353 63 186 1.0 12.0 0.00 0.00 0.00 45 1018.7